Location: Austin
(30.3000°N, 97.7500°W)
Time: 08:35:38
(UTC-05:00)

Daily predictions for brighter satellites

Satellite Brightness Start Highest point End
(mag) Time Altitude Azimuth Time Altitude Azimuth Time Altitude Azimuth
Cosmos 1766 3.6 20:55:50 10° N 20:59:32 44° E 21:03:15 10° SSE
YAOGAN 1 4.1 20:57:20 10° SSW 21:01:20 37° W 21:05:21 10° NNW
Cosmos 2360 Rocket 3.3 20:57:08 10° SSE 21:01:28 23° E 21:05:48 10° NE
Cosmos 1821 Rocket 4.0 20:56:09 10° N 21:02:20 86° E 21:08:25 10° S
Cosmos 407 Rocket 3.6 20:57:32 10° N 21:02:44 60° ENE 21:07:52 10° SSE
Sich 1 Rocket 3.5 20:58:24 10° N 21:02:47 79° E 21:07:11 10° S
SL-16 R/B 2.2 20:58:40 10° S 21:04:14 65° ESE 21:09:51 10° NNE
Cosmos 2322 Rocket 2.5 20:59:22 10° S 21:04:48 48° ESE 21:10:16 10° NNE
Centaur D-1AR AC-36 3.0 21:04:24 10° WSW 21:06:57 20° S 21:09:58 10° SE
Cosmos 2082 4.2 21:01:47 10° NNW 21:07:27 65° WSW 21:13:05 10° S
OBJECT-B 1.4 21:04:39 10° SE 21:07:38 37° ENE 21:10:37 10° N
ATLAS 3B R/B 3.7 21:04:10 10° SSE 21:08:39 20° ESE 21:13:10 10° ENE
Cosmos 1470 4.4 21:07:03 10° NNE 21:09:49 18° ENE 21:12:34 10° ESE
USA 234 3.7 21:03:50 10° SSE 21:10:15 59° SW 21:16:42 10° NW
NOSS 3-2 (C) 4.3 21:05:03 10° SW 21:10:15 50° WNW 21:16:04 10° NNE
Cosmos 1420 Rocket 4.0 21:05:26 10° SSW 21:10:36 90° WNW 21:15:49 10° NNE
KM-V1 3.1 21:09:49 10° W 21:11:58 84° N 21:15:05 10° E
MOS 1-B Rocket 4.2 21:06:27 10° N 21:12:06 76° WNW 21:18:17 10° SSW
FALCON 9 DEB 3.0 21:09:07 10° SSW 21:12:06 50° SE 21:15:07 10° NE
Cosmos 1378 Rocket 3.6 21:09:43 10° S 21:13:57 58° E 21:18:14 10° NNE
SJ-6B 3.1 21:13:24 10° SSE 21:17:23 54° ENE 21:21:21 10° N
CZ-4 R/B 4.0 21:14:54 10° SW 21:17:29 17° W 21:20:08 10° NW
Okean 1 Rocket 4.3 21:14:33 10° NNE 21:18:10 25° E 21:21:22 12° SE
Cosmos 1190 Rocket 4.1 21:12:57 10° N 21:18:12 62° ENE 21:23:26 10° SSE
FALCON 9 DEB 3.2 21:16:03 10° SSW 21:18:59 42° SE 21:21:57 10° ENE
FALCON 9 DEB 2.7 21:19:18 10° SSW 21:22:21 65° SE 21:25:26 10° NE
Cosmos 1238 4.5 21:19:32 10° S 21:23:12 58° E 21:26:18 10° NNE
Cosmos 1733 3.8 21:19:43 10° NNW 21:23:31 59° W 21:27:16 10° S
Resurs 1-3 4.4 21:20:34 11° SE 21:24:17 34° ENE 21:28:14 10° N
Cosmos 1805 4.4 21:20:57 10° NNW 21:24:39 44° W 21:28:21 10° SSW
USA 186 1.7 21:22:08 10° S 21:24:49 66° W 21:27:44 10° NNW
CSL-04 Rocket 4.4 21:21:20 10° S 21:26:43 57° WSW 21:32:11 10° NNW
Helios 1A Rocket 3.1 21:26:17 10° S 21:30:20 75° WSW 21:34:23 10° NNW
Cosmos 2237 4.2 21:26:55 10° S 21:32:30 61° ESE 21:38:06 10° NNE
Cosmos 1934 Rocket 4.0 21:29:33 10° N 21:35:44 86° E 21:41:57 10° S
NATO 3D Rocket 4.5 21:32:25 10° WSW 21:36:28 26° S 21:39:01 17° SE
Cosmos 1707 2.8 21:32:42 10° S 21:36:29 58° E 21:40:18 10° NNE
Meteor 1-21 4.2 21:31:14 10° S 21:36:54 80° E 21:42:33 10° N
Cosmos 1315 Rocket 3.6 21:34:09 10° NNE 21:37:57 35° E 21:40:17 19° SE
IRS-1A Rocket 4.5 21:34:54 12° SSE 21:40:21 61° ENE 21:46:05 10° N
Ariane Rocket 3.1 21:39:06 14° SSE 21:43:21 59° ENE 21:48:22 10° N
SL-4 R/B 3.4 21:41:31 10° S 21:49:25 - ENE 21:44:17 20° SE
Meteor 2-20 4.4 21:41:57 10° S 21:48:01 77° E 21:54:07 10° N
ERS-2 3.8 21:46:27 10° N 21:49:48 35° WNW 21:53:08 10° SW
Cosmos 1954 Rocket 4.0 21:44:54 10° NNW 21:50:14 75° ENE 21:54:05 19° SSE
Cosmos 676 Rocket 4.0 21:46:23 10° NNW 21:51:44 75° ENE 21:55:32 19° SSE
CZ-2C R/B 4.3 21:48:08 10° NNE 21:52:35 38° E 21:55:06 22° SSE
Lacrosse 5 rocket 2.6 21:49:57 10° WSW 21:53:34 40° NW 21:57:02 10° NNE
In-Cosmos 22 4.0 21:50:11 10° S 21:55:25 68° E 22:00:40 10° NNE
Lacrosse 5 2.3 21:50:55 10° NNW 21:55:51 51° NE 21:58:35 25° ESE
Cosmos 2263 Rocket 2.3 21:50:30 10° NNW 21:56:12 77° WSW 22:00:40 17° SSE
Cosmos 1758 3.6 21:54:46 10° N 21:58:36 46° E 22:00:01 31° SE
ATLAS 2A CENTAUR R/B 3.8 21:34:02 10° WSW 21:58:44 48° S 22:03:21 21° ESE
Cosmos 1975 Rocket 3.2 21:58:54 24° SSE 22:01:15 52° E 22:05:31 10° NNE
Landsat 7 4.3 21:59:40 27° SE 22:01:46 43° ENE 22:06:15 10° N
Cosmos 1727 Rocket 4.0 21:56:20 10° S 22:02:38 78° E 22:08:54 10° N
Cosmos 1110 Rocket 3.9 22:00:59 10° S 22:06:06 70° ESE 22:11:16 10° NNE
Cosmos 2333 4.4 22:00:53 11° S 22:06:09 49° ESE 22:11:39 10° NNE
Yuri Rocket 4.1 22:01:23 10° WSW 22:07:08 63° SSE 22:14:28 13° E
Delta 128 3.8 22:03:52 10° W 22:08:12 52° S 22:09:42 35° SE
Resurs 01 Rocket 1.6 22:06:34 31° SE 22:08:29 63° ENE 22:12:51 10° N
Cosmos 1605 Rocket 4.2 22:06:40 10° N 22:13:02 76° W 22:18:22 15° S
KORONAS-FOTON 3.7 22:12:01 40° SSE 22:13:13 66° E 22:16:58 10° NNE
Fermi 4.3 22:13:57 10° WSW 22:17:50 39° S 22:18:03 39° S
Cosmos 2333 Rocket 2.3 22:16:10 23° S 22:19:35 53° ESE 22:25:08 10° NNE
Cosmos 1674 2.5 22:19:14 45° S 22:20:18 85° E 22:24:01 10° N
Cosmos 2219 Rocket 2.5 22:19:18 33° SSE 22:21:14 45° ESE 22:26:36 10° NE
USA 81 3.9 22:17:19 10° N 22:22:36 84° E 22:25:11 31° S
Cosmos 1953 3.0 22:19:47 10° NNE 22:23:32 37° E 22:23:32 37° E
BREEZE-M DEB (TANK) 4.4 22:23:35 10° WNW 22:25:12 16° NNW 22:26:58 10° NNE
Cosmos 1726 3.6 22:24:39 10° NNW 22:27:57 33° W 22:29:45 21° SW
ASTRO E2 2.6 22:25:24 10° W 22:29:22 80° N 22:30:13 53° ENE
Cosmos 1459 Rocket 4.1 22:30:46 10° N 22:36:40 54° E 22:38:15 43° SE
Cosmos 1000 Rocket 4.4 22:35:49 27° S 22:39:22 89° E 22:45:31 10° N
Cosmos 2237 Rocket 4.3 22:44:17 11° ENE 22:44:17 11° ENE 22:44:47 10° ENE
ERS-1 Rocket 3.8 22:44:13 33° ENE 22:44:23 33° ENE 22:48:51 10° N
Cosmos 1340 3.6 22:46:01 39° NE 22:46:01 39° NE 22:48:35 10° NNE
Cosmos 2360 Rocket 3.7 22:40:01 10° SW 22:45:09 36° WNW 22:50:19 10° N
ARIANE 5 R/B 3.2 22:45:36 43° ENE 22:45:36 43° ENE 22:49:39 10° N
Spot 2 Rocket 3.6 22:46:38 53° E 22:47:10 56° ENE 22:52:07 10° N
Meteor 1-24 Rocket 4.5 22:49:56 33° ENE 22:49:56 33° ENE 22:54:01 10° NNE
Cosmos 1850 Rocket 3.9 22:44:09 10° NNW 22:49:26 84° WSW 22:50:27 59° S
Cosmos 1544 Rocket 4.0 22:47:03 10° N 22:50:53 49° ENE 22:50:53 49° ENE
SPOT 1/Viking Rocket 3.5 22:54:25 57° S 22:55:26 78° WSW 23:00:35 10° NNW
Cosmos 1455 Rocket 3.1 22:51:26 10° N 22:55:54 75° W 22:56:07 72° SW
ATLAS 3B R/B 3.2 22:52:23 10° SW 22:58:44 55° WNW 23:05:14 10° NNE
Cosmos 2123 Rocket 3.9 23:03:20 52° S 23:05:01 88° E 23:11:22 10° N
Uosat 12 SS-18 rocket 4.3 23:06:18 63° WNW 23:06:31 64° WNW 23:11:03 10° NNE
Cosmos 1626 3.6 23:10:27 33° WNW 23:10:27 33° WNW 23:13:37 10° NNW
Cosmos 1908 4.2 23:06:36 10° NNW 23:09:39 44° NW 23:09:39 44° NW
Cosmos 2322 4.4 23:06:40 16° SW 23:10:59 50° WNW 23:16:28 10° N
Cosmos 1302 Rocket 4.4 23:09:48 42° SW 23:11:25 61° WNW 23:16:37 10° N
Terra 2.7 23:12:29 39° NE 23:12:29 39° NE 23:16:09 10° N
COSMOS 2428 2.7 23:10:07 48° SW 23:11:46 77° WNW 23:17:32 10° NNE
Meteor 1-16 Rocket 4.5 23:06:33 10° NNW 23:11:48 56° W 23:12:43 49° SW
Cosmos 2061 Rocket 3.9 23:06:08 10° N 23:12:32 68° E 23:13:09 64° ESE
Cosmos 1461 3.7 23:08:53 10° NNW 23:11:53 47° NNW 23:11:53 47° NNW
Aureole 1 Rocket 4.3 23:08:20 10° NNW 23:15:08 84° WSW 23:17:14 53° S
SPOT 5 3.0 23:16:00 71° NE 23:16:00 71° NE 23:20:41 10° N
Cosmos 1025 Rocket 4.4 23:15:22 32° WSW 23:16:09 35° W 23:20:10 10° NNW
Cosmos 1536 Rocket 4.0 23:17:04 60° NNW 23:17:04 60° NNW 23:20:48 10° N
ATLAS CENTAUR R/B 2.9 23:13:43 10° N 23:16:58 32° NE 23:16:58 32° NE
BREEZE M DEB (TANK) 4.4 23:17:19 14° WSW 23:20:57 70° NW 23:36:15 10° NE
IUS-18 SRM-1 3.6 23:13:20 10° W 23:20:37 46° WSW 23:20:37 46° WSW
Cosmos 2278 Rocket 4.2 23:19:10 10° NNE 23:22:28 16° ENE 23:22:35 16° ENE
SL-4 R/B 3.3 23:20:15 10° WSW 23:24:19 39° NW 23:28:06 10° NNE
Cosmos 1844 Rocket 2.8 23:20:04 10° NNW 23:25:42 67° WSW 23:25:49 66° WSW
USA 215 3.1 23:25:26 10° NE 23:31:59 81° SE 23:32:55 67° SSW
Lacrosse 5 3.9 23:35:06 10° WNW 23:37:47 17° WSW 23:37:47 17° WSW
SL-08 R/B 4.4 23:33:10 10° N 23:39:29 78° W 23:39:42 77° WSW
Cosmos 2016 Rocket 4.2 23:38:14 10° NNW 23:44:13 58° W 23:44:37 57° WSW
Cosmos 1980 4.3 23:53:24 51° NNE 23:53:24 51° NNE 23:57:36 10° NNE
